QFA430 YMML-YSSY

Flight info

Callsign QFA430
Flight time 1h 7m
Altitude 35000
Route ML H129 DOSEL Y59 RIVET
Aircraft B738/M-SDE2E3FGHIRWXY/LB1

Departure

Time 2026-04-30 09:03
Airport Melbourne Airport (YMML)

Arrival

Time 2026-04-30 10:10
Airport Sydney Kingsford Smith International Airport (YSSY)
Time Latitude Longitude Altitude Speed Heading
2026-04-30 08:34 -37.66681 144.84876 338 ft 0 kts 85°
2026-04-30 08:45 -37.66683 144.84858 333 ft 2 kts 76°
2026-04-30 08:45 -37.66688 144.84837 333 ft 2 kts 62°
2026-04-30 08:46 -37.66694 144.84825 334 ft 2 kts 38°
2026-04-30 08:46 -37.66704 144.84819 334 ft 2 kts
2026-04-30 08:46 -37.66715 144.84819 339 ft 2 kts 350°
2026-04-30 08:46 -37.66725 144.84822 337 ft 2 kts 344°
2026-04-30 08:47 -37.66735 144.84825 340 ft 0 kts 342°
2026-04-30 08:47 -37.66728 144.84823 336 ft 2 kts 342°
2026-04-30 08:47 -37.66711 144.84816 338 ft 4 kts 342°
2026-04-30 08:47 -37.66681 144.84804 335 ft 5 kts 342°
2026-04-30 08:48 -37.66640 144.84787 337 ft 7 kts 342°
2026-04-30 08:48 -37.66586 144.84766 334 ft 9 kts 342°
2026-04-30 08:48 -37.66539 144.84748 331 ft 5 kts 343°
2026-04-30 08:48 -37.66537 144.84748 332 ft 0 kts 356°
2026-04-30 08:49 -37.66543 144.84749 333 ft 2 kts 355°
2026-04-30 08:49 -37.66557 144.84751 333 ft 2 kts 353°
2026-04-30 08:49 -37.66575 144.84753 334 ft 3 kts 351°
2026-04-30 08:50 -37.66595 144.84758 335 ft 3 kts 348°
2026-04-30 08:50 -37.66615 144.84764 334 ft 3 kts 343°
2026-04-30 08:50 -37.66636 144.84773 336 ft 3 kts 337°
2026-04-30 08:50 -37.66654 144.84784 337 ft 3 kts 328°
2026-04-30 08:51 -37.66673 144.84801 335 ft 3 kts 324°
2026-04-30 08:51 -37.66685 144.84810 335 ft 2 kts 338°
2026-04-30 08:51 -37.66687 144.84811 335 ft 0 kts 340°
2026-04-30 08:52 -37.66684 144.84810 339 ft 1 kts 341°
2026-04-30 08:53 -37.66663 144.84800 336 ft 5 kts 336°
2026-04-30 08:53 -37.66640 144.84763 335 ft 5 kts 285°
2026-04-30 08:53 -37.66639 144.84733 340 ft 2 kts 269°
2026-04-30 08:53 -37.66641 144.84704 347 ft 8 kts 263°
2026-04-30 08:54 -37.66653 144.84607 349 ft 13 kts 261°
2026-04-30 08:54 -37.66666 144.84497 355 ft 13 kts 262°
2026-04-30 08:54 -37.66680 144.84381 363 ft 14 kts 262°
2026-04-30 08:54 -37.66689 144.84304 370 ft 13 kts 262°
2026-04-30 08:55 -37.66720 144.84201 374 ft 13 kts 219°
2026-04-30 08:55 -37.66815 144.84198 374 ft 16 kts 172°
2026-04-30 08:55 -37.66962 144.84226 371 ft 16 kts 171°
2026-04-30 08:55 -37.67074 144.84246 369 ft 17 kts 172°
2026-04-30 08:56 -37.67192 144.84269 369 ft 18 kts 171°
2026-04-30 08:56 -37.67275 144.84284 365 ft 18 kts 172°
2026-04-30 08:56 -37.67446 144.84316 363 ft 19 kts 171°
2026-04-30 08:56 -37.67536 144.84333 362 ft 20 kts 173°
2026-04-30 08:57 -37.67669 144.84358 361 ft 18 kts 172°
2026-04-30 08:57 -37.67727 144.84368 357 ft 0 kts 172°
2026-04-30 08:57 -37.67735 144.84369 355 ft 2 kts 171°
2026-04-30 08:57 -37.67745 144.84371 355 ft 0 kts 171°
2026-04-30 08:59 -37.67763 144.84375 360 ft 12 kts 171°
2026-04-30 08:59 -37.67841 144.84391 354 ft 3 kts 170°
2026-04-30 08:59 -37.67858 144.84387 354 ft 10 kts 206°
2026-04-30 09:00 -37.67855 144.84322 357 ft 11 kts 279°
2026-04-30 09:00 -37.67861 144.84214 350 ft 13 kts 261°
2026-04-30 09:00 -37.67870 144.84157 354 ft 5 kts 264°
2026-04-30 09:00 -37.67870 144.84151 355 ft 0 kts 264°
2026-04-30 09:01 -37.67870 144.84150 355 ft 1 kts 264°
2026-04-30 09:01 -37.67876 144.84097 352 ft 9 kts 261°
2026-04-30 09:01 -37.67887 144.84007 352 ft 13 kts 266°
2026-04-30 09:02 -37.67840 144.83963 356 ft 0 kts 355°
2026-04-30 09:02 -37.67744 144.83947 359 ft 37 kts 352°
2026-04-30 09:02 -37.67257 144.83857 374 ft 102 kts 351°
2026-04-30 09:03 -37.66372 144.83698 399 ft 153 kts 351°
2026-04-30 09:03 -37.65286 144.83514 1005 ft 149 kts 357°
2026-04-30 09:03 -37.64365 144.83573 1998 ft 124 kts 23°
2026-04-30 09:03 -37.63712 144.84360 2360 ft 149 kts 45°
2026-04-30 09:04 -37.63027 144.85560 2554 ft 182 kts 65°
2026-04-30 09:04 -37.62870 144.87107 3464 ft 174 kts 72°
2026-04-30 09:04 -37.62280 144.88372 3922 ft 180 kts 39°
2026-04-30 09:04 -37.61271 144.89585 3840 ft 223 kts 39°
2026-04-30 09:05 -37.60074 144.90998 4128 ft 246 kts 39°
2026-04-30 09:05 -37.58793 144.92496 4733 ft 251 kts 38°
2026-04-30 09:05 -37.57489 144.94005 4978 ft 259 kts 38°
2026-04-30 09:05 -37.56157 144.95532 4995 ft 257 kts 38°
2026-04-30 09:06 -37.54834 144.97036 5008 ft 256 kts 38°
2026-04-30 09:06 -37.53498 144.98544 5348 ft 260 kts 37°
2026-04-30 09:06 -37.52139 145.00052 6143 ft 261 kts 36°
2026-04-30 09:06 -37.50740 145.01555 6822 ft 268 kts 36°
2026-04-30 09:07 -37.49308 145.03096 7513 ft 273 kts 36°
2026-04-30 09:07 -37.47860 145.04671 8283 ft 276 kts 37°
2026-04-30 09:07 -37.46402 145.06271 9049 ft 281 kts 37°
2026-04-30 09:07 -37.44920 145.07906 9802 ft 286 kts 37°
2026-04-30 09:08 -37.43410 145.09577 10530 ft 292 kts 38°
2026-04-30 09:08 -37.41888 145.11269 11183 ft 298 kts 37°
2026-04-30 09:08 -37.40325 145.13010 11948 ft 302 kts 38°
2026-04-30 09:08 -37.38738 145.14778 12736 ft 306 kts 38°
2026-04-30 09:09 -37.37133 145.16567 13575 ft 310 kts 38°
2026-04-30 09:09 -37.35510 145.18375 14369 ft 314 kts 38°
2026-04-30 09:09 -37.33864 145.20209 15154 ft 317 kts 38°
2026-04-30 09:09 -37.32212 145.22050 15966 ft 319 kts 38°
2026-04-30 09:10 -37.30540 145.23911 16763 ft 322 kts 37°
2026-04-30 09:10 -37.28851 145.25789 17549 ft 326 kts 37°
2026-04-30 09:10 -37.27144 145.27687 18341 ft 329 kts 37°
2026-04-30 09:10 -37.25418 145.29604 19055 ft 332 kts 37°
2026-04-30 09:11 -37.23693 145.31521 19684 ft 337 kts 37°
2026-04-30 09:11 -37.21927 145.33482 20344 ft 340 kts 37°
2026-04-30 09:11 -37.20141 145.35462 20994 ft 344 kts 37°
2026-04-30 09:11 -37.18332 145.37464 21630 ft 349 kts 37°
2026-04-30 09:12 -37.16530 145.39540 22246 ft 356 kts 42°
2026-04-30 09:12 -37.14957 145.41988 22858 ft 364 kts 49°
2026-04-30 09:12 -37.13467 145.44581 23454 ft 369 kts 50°
2026-04-30 09:12 -37.11998 145.47184 24015 ft 373 kts 51°
2026-04-30 09:13 -37.10474 145.49890 24550 ft 376 kts 50°
2026-04-30 09:13 -37.08960 145.52569 25096 ft 378 kts 49°
2026-04-30 09:13 -37.07449 145.55224 25609 ft 381 kts 50°
2026-04-30 09:13 -37.05901 145.57934 26111 ft 384 kts 49°
2026-04-30 09:14 -37.04341 145.60656 26626 ft 386 kts 49°
2026-04-30 09:14 -37.02765 145.63397 27117 ft 389 kts 49°
2026-04-30 09:14 -37.01177 145.66154 27607 ft 392 kts 49°
2026-04-30 09:14 -36.99578 145.68927 28143 ft 394 kts 49°
2026-04-30 09:15 -36.97969 145.71716 28632 ft 396 kts 49°
2026-04-30 09:15 -36.96345 145.74526 29099 ft 400 kts 49°
2026-04-30 09:15 -36.94711 145.77350 29560 ft 402 kts 49°
2026-04-30 09:15 -36.93066 145.80193 30003 ft 405 kts 50°
2026-04-30 09:16 -36.91397 145.83071 30394 ft 409 kts 50°
2026-04-30 09:16 -36.89743 145.85924 30771 ft 412 kts 50°
2026-04-30 09:16 -36.88052 145.88840 31177 ft 413 kts 50°
2026-04-30 09:16 -36.86362 145.91751 31582 ft 414 kts 49°
2026-04-30 09:17 -36.84664 145.94674 31938 ft 416 kts 49°
2026-04-30 09:17 -36.82957 145.97608 32296 ft 419 kts 49°
2026-04-30 09:17 -36.81237 146.00563 32648 ft 421 kts 49°
2026-04-30 09:17 -36.79510 146.03524 32986 ft 423 kts 49°
2026-04-30 09:18 -36.77776 146.06499 33309 ft 425 kts 50°
2026-04-30 09:18 -36.76033 146.09485 33642 ft 427 kts 50°
2026-04-30 09:18 -36.74300 146.12450 33957 ft 429 kts 50°
2026-04-30 09:18 -36.72541 146.15457 34261 ft 431 kts 50°
2026-04-30 09:19 -36.70766 146.18490 34528 ft 433 kts 50°
2026-04-30 09:19 -36.68986 146.21527 34783 ft 435 kts 50°
2026-04-30 09:19 -36.67199 146.24575 35017 ft 437 kts 50°
2026-04-30 09:19 -36.65397 146.27645 35249 ft 439 kts 50°
2026-04-30 09:20 -36.63585 146.30728 35359 ft 444 kts 50°
2026-04-30 09:20 -36.61743 146.33858 35350 ft 450 kts 50°
2026-04-30 09:20 -36.58019 146.40183 35361 ft 453 kts 50°
2026-04-30 09:21 -36.54299 146.46494 35358 ft 452 kts 50°
2026-04-30 09:21 -36.50575 146.52798 35356 ft 451 kts 50°
2026-04-30 09:22 -36.46882 146.59036 35351 ft 450 kts 50°
2026-04-30 09:22 -36.43170 146.65293 35362 ft 448 kts 50°
2026-04-30 09:23 -36.39472 146.71516 35365 ft 447 kts 50°
2026-04-30 09:23 -36.35779 146.77719 35358 ft 446 kts 50°
2026-04-30 09:24 -36.32093 146.83899 35362 ft 445 kts 50°
2026-04-30 09:24 -36.28430 146.90030 35367 ft 445 kts 50°
2026-04-30 09:25 -36.24741 146.96193 35372 ft 445 kts 50°
2026-04-30 09:25 -36.21039 147.02370 35368 ft 447 kts 50°
2026-04-30 09:26 -36.17329 147.08546 35370 ft 447 kts 50°
2026-04-30 09:26 -36.13604 147.14732 35376 ft 448 kts 51°
2026-04-30 09:27 -36.09901 147.20877 35376 ft 448 kts 51°
2026-04-30 09:27 -36.06165 147.27067 35367 ft 449 kts 51°
2026-04-30 09:28 -36.02430 147.33244 35378 ft 448 kts 50°
2026-04-30 09:28 -35.98696 147.39411 35386 ft 448 kts 51°
2026-04-30 09:29 -35.94959 147.45569 35380 ft 447 kts 51°
2026-04-30 09:29 -35.91230 147.51703 35392 ft 446 kts 51°
2026-04-30 09:30 -35.87506 147.57821 35394 ft 445 kts 51°
2026-04-30 09:30 -35.83777 147.63934 35391 ft 445 kts 51°
2026-04-30 09:31 -35.80053 147.70022 35386 ft 445 kts 51°
2026-04-30 09:31 -35.76324 147.76107 35405 ft 445 kts 51°
2026-04-30 09:32 -35.72611 147.82157 35411 ft 446 kts 51°
2026-04-30 09:32 -35.68868 147.88248 35412 ft 446 kts 51°
2026-04-30 09:33 -35.65116 147.94342 35413 ft 447 kts 51°
2026-04-30 09:33 -35.61354 148.00443 35417 ft 448 kts 51°
2026-04-30 09:34 -35.57576 148.06559 35424 ft 449 kts 51°
2026-04-30 09:34 -35.53783 148.12688 35418 ft 450 kts 51°
2026-04-30 09:35 -35.49985 148.18815 35421 ft 450 kts 51°
2026-04-30 09:35 -35.46209 148.24899 35423 ft 451 kts 51°
2026-04-30 09:36 -35.42398 148.31023 35440 ft 451 kts 51°
2026-04-30 09:36 -35.38580 148.37136 35432 ft 452 kts 51°
2026-04-30 09:37 -35.34752 148.43251 35437 ft 452 kts 51°
2026-04-30 09:37 -35.30915 148.49373 35432 ft 452 kts 51°
2026-04-30 09:38 -35.27087 148.55474 35429 ft 452 kts 51°
2026-04-30 09:38 -35.23253 148.61573 35433 ft 452 kts 51°
2026-04-30 09:39 -35.19446 148.67618 35426 ft 451 kts 51°
2026-04-30 09:39 -35.15615 148.73691 35426 ft 451 kts 51°
2026-04-30 09:40 -35.11775 148.79767 35148 ft 454 kts 52°
2026-04-30 09:40 -35.09851 148.82807 34810 ft 449 kts 52°
2026-04-30 09:40 -35.07950 148.85809 34359 ft 445 kts 52°
2026-04-30 09:41 -35.06673 148.87824 34030 ft 443 kts 52°
2026-04-30 09:41 -35.04192 148.91737 33428 ft 438 kts 52°
2026-04-30 09:41 -35.02333 148.94664 32996 ft 434 kts 52°
2026-04-30 09:41 -35.01112 148.96587 32712 ft 431 kts 52°
2026-04-30 09:42 -34.99282 148.99465 32300 ft 428 kts 52°
2026-04-30 09:42 -34.97458 149.02331 31864 ft 425 kts 52°
2026-04-30 09:42 -34.95656 149.05162 31538 ft 419 kts 52°
2026-04-30 09:42 -34.93883 149.07944 31297 ft 411 kts 52°
2026-04-30 09:43 -34.92138 149.10680 31032 ft 407 kts 52°
2026-04-30 09:43 -34.90406 149.13393 30681 ft 402 kts 52°
2026-04-30 09:43 -34.88692 149.16076 30278 ft 402 kts 52°
2026-04-30 09:43 -34.86971 149.18768 29848 ft 405 kts 52°
2026-04-30 09:44 -34.85248 149.21462 29413 ft 409 kts 52°
2026-04-30 09:44 -34.83507 149.24181 28969 ft 406 kts 52°
2026-04-30 09:44 -34.81778 149.26881 28561 ft 403 kts 51°
2026-04-30 09:44 -34.80035 149.29599 28147 ft 415 kts 51°
2026-04-30 09:45 -34.78230 149.32413 27708 ft 424 kts 51°
2026-04-30 09:45 -34.76416 149.35239 27246 ft 424 kts 51°
2026-04-30 09:45 -34.74611 149.38052 26798 ft 420 kts 52°
2026-04-30 09:45 -34.73002 149.40997 26345 ft 416 kts 60°
2026-04-30 09:46 -34.71648 149.44083 25926 ft 412 kts 62°
2026-04-30 09:46 -34.70341 149.47166 25492 ft 409 kts 62°
2026-04-30 09:46 -34.69044 149.50233 25065 ft 406 kts 62°
2026-04-30 09:46 -34.67766 149.53229 24622 ft 404 kts 62°
2026-04-30 09:47 -34.66463 149.56253 24191 ft 402 kts 62°
2026-04-30 09:47 -34.65160 149.59251 23708 ft 400 kts 61°
2026-04-30 09:47 -34.63860 149.62229 23245 ft 397 kts 62°
2026-04-30 09:47 -34.62570 149.65177 22799 ft 393 kts 62°
2026-04-30 09:48 -34.61291 149.68096 22373 ft 390 kts 61°
2026-04-30 09:48 -34.60023 149.70985 21948 ft 386 kts 62°
2026-04-30 09:48 -34.58768 149.73843 21539 ft 381 kts 61°
2026-04-30 09:48 -34.57528 149.76664 21131 ft 377 kts 62°
2026-04-30 09:49 -34.56301 149.79454 20724 ft 373 kts 61°
2026-04-30 09:49 -34.55085 149.82217 20326 ft 369 kts 61°
2026-04-30 09:49 -34.53879 149.84957 19938 ft 366 kts 61°
2026-04-30 09:49 -34.52687 149.87663 19548 ft 362 kts 61°
2026-04-30 09:50 -34.51519 149.90310 19157 ft 360 kts 61°
2026-04-30 09:50 -34.50343 149.92974 18761 ft 357 kts 61°
2026-04-30 09:50 -34.49171 149.95626 18318 ft 355 kts 61°
2026-04-30 09:50 -34.48008 149.98254 17891 ft 351 kts 61°
2026-04-30 09:51 -34.46867 150.00833 17503 ft 342 kts 61°
2026-04-30 09:51 -34.45752 150.03351 17127 ft 336 kts 61°
2026-04-30 09:51 -34.44651 150.05836 16768 ft 334 kts 61°
2026-04-30 09:51 -34.43558 150.08303 16404 ft 331 kts 61°
2026-04-30 09:52 -34.42469 150.10758 16039 ft 329 kts 61°
2026-04-30 09:52 -34.41385 150.13200 15678 ft 328 kts 60°
2026-04-30 09:52 -34.40309 150.15622 15311 ft 326 kts 60°
2026-04-30 09:52 -34.39249 150.18005 14964 ft 325 kts 60°
2026-04-30 09:53 -34.38178 150.20415 14610 ft 323 kts 60°
2026-04-30 09:53 -34.37114 150.22807 14234 ft 323 kts 60°
2026-04-30 09:53 -34.36048 150.25198 13819 ft 322 kts 60°
2026-04-30 09:53 -34.34991 150.27571 13452 ft 319 kts 61°
2026-04-30 09:54 -34.33940 150.29928 13090 ft 316 kts 60°
2026-04-30 09:54 -34.32898 150.32262 12736 ft 314 kts 61°
2026-04-30 09:54 -34.31853 150.34603 12140 ft 319 kts 61°
2026-04-30 09:54 -34.30787 150.36989 11540 ft 325 kts 61°
2026-04-30 09:55 -34.29703 150.39413 10950 ft 329 kts 61°
2026-04-30 09:55 -34.28606 150.41866 10358 ft 333 kts 62°
2026-04-30 09:55 -34.27500 150.44335 9708 ft 334 kts 62°
2026-04-30 09:55 -34.26413 150.46764 9302 ft 321 kts 62°
2026-04-30 09:56 -34.25382 150.49067 9167 ft 302 kts 62°
2026-04-30 09:56 -34.24414 150.51230 9124 ft 282 kts 62°
2026-04-30 09:56 -34.23499 150.53271 8893 ft 272 kts 62°
2026-04-30 09:56 -34.22621 150.55231 8640 ft 266 kts 61°
2026-04-30 09:57 -34.21740 150.57195 8399 ft 265 kts 61°
2026-04-30 09:57 -34.20866 150.59145 8199 ft 263 kts 61°
2026-04-30 09:57 -34.19988 150.61099 8161 ft 266 kts 62°
2026-04-30 09:57 -34.19107 150.63059 8130 ft 264 kts 62°
2026-04-30 09:58 -34.18235 150.64997 8117 ft 261 kts 62°
2026-04-30 09:58 -34.17372 150.66917 8022 ft 260 kts 62°
2026-04-30 09:58 -34.16506 150.68842 7917 ft 261 kts 62°
2026-04-30 09:58 -34.15650 150.70744 7809 ft 261 kts 62°
2026-04-30 09:59 -34.13910 150.74610 7589 ft 262 kts 62°
2026-04-30 09:59 -34.12161 150.78489 7371 ft 262 kts 61°
2026-04-30 10:00 -34.10414 150.82359 7146 ft 262 kts 61°
2026-04-30 10:00 -34.09554 150.84267 7035 ft 262 kts 62°
2026-04-30 10:01 -34.07821 150.88120 6810 ft 261 kts 61°
2026-04-30 10:01 -34.06957 150.90039 6693 ft 260 kts 62°
2026-04-30 10:01 -34.06096 150.91952 6573 ft 259 kts 61°
2026-04-30 10:02 -34.04385 150.95744 6352 ft 256 kts 62°
2026-04-30 10:02 -34.03535 150.97629 6242 ft 255 kts 63°
2026-04-30 10:02 -34.03057 150.99671 6108 ft 255 kts 90°
2026-04-30 10:02 -34.03479 151.01733 5971 ft 257 kts 116°
2026-04-30 10:03 -34.04541 151.03480 5814 ft 260 kts 131°
2026-04-30 10:03 -34.05794 151.05059 5632 ft 262 kts 133°
2026-04-30 10:03 -34.07069 151.06627 5447 ft 261 kts 133°
2026-04-30 10:03 -34.08556 151.07849 5241 ft 261 kts 158°
2026-04-30 10:04 -34.10286 151.08380 5089 ft 260 kts 166°
2026-04-30 10:04 -34.12070 151.08820 4911 ft 263 kts 166°
2026-04-30 10:04 -34.13878 151.09268 4744 ft 265 kts 165°
2026-04-30 10:04 -34.15684 151.09735 4547 ft 265 kts 162°
2026-04-30 10:05 -34.17296 151.10722 4343 ft 259 kts 135°
2026-04-30 10:05 -34.18263 151.12472 4218 ft 246 kts 105°
2026-04-30 10:05 -34.18352 151.14450 4211 ft 232 kts 77°
2026-04-30 10:05 -34.17979 151.16366 4041 ft 238 kts 74°
2026-04-30 10:06 -34.17545 151.18314 3805 ft 241 kts 73°
2026-04-30 10:06 -34.17055 151.20236 3540 ft 238 kts 63°
2026-04-30 10:06 -34.16001 151.21730 3277 ft 236 kts 33°
2026-04-30 10:06 -34.14533 151.22558 3168 ft 231 kts 23°
2026-04-30 10:07 -34.13004 151.23176 3117 ft 233 kts 13°
2026-04-30 10:07 -34.11412 151.23101 3107 ft 235 kts 343°
2026-04-30 10:07 -34.09925 151.22214 2754 ft 247 kts 338°
2026-04-30 10:07 -34.08310 151.21470 2390 ft 248 kts 345°
2026-04-30 10:08 -34.06653 151.20910 2121 ft 246 kts 349°
2026-04-30 10:08 -34.05003 151.20411 1802 ft 241 kts 347°
2026-04-30 10:08 -34.03445 151.19896 1432 ft 222 kts 349°
2026-04-30 10:08 -34.02006 151.19512 1146 ft 201 kts 351°
2026-04-30 10:09 -34.00710 151.19180 897 ft 183 kts 352°
2026-04-30 10:09 -33.99521 151.18870 666 ft 167 kts 350°
2026-04-30 10:09 -33.98451 151.18591 445 ft 150 kts 352°
2026-04-30 10:09 -33.97446 151.18331 270 ft 149 kts 349°
2026-04-30 10:10 -33.96448 151.18068 98 ft 140 kts 351°
2026-04-30 10:10 -33.95582 151.17847 23 ft 106 kts 349°
2026-04-30 10:10 -33.95050 151.17711 18 ft 62 kts 348°
2026-04-30 10:10 -33.94739 151.17641 22 ft 24 kts
2026-04-30 10:11 -33.94571 151.17666 22 ft 17 kts 13°
2026-04-30 10:11 -33.94520 151.17684 24 ft 0 kts 17°
2026-04-30 10:12 -33.94492 151.17695 26 ft 6 kts 22°
2026-04-30 10:13 -33.94451 151.17714 26 ft 8 kts 17°
2026-04-30 10:13 -33.94416 151.17727 24 ft 0 kts 17°
2026-04-30 10:13 -33.94401 151.17733 23 ft 11 kts 17°
2026-04-30 10:14 -33.94362 151.17746 23 ft 1 kts
2026-04-30 10:14 -33.94281 151.17720 20 ft 19 kts 344°
2026-04-30 10:14 -33.94025 151.17641 23 ft 18 kts 346°
2026-04-30 10:15 -33.93902 151.17612 18 ft 16 kts 353°
2026-04-30 10:15 -33.93802 151.17588 17 ft 14 kts 345°
2026-04-30 10:15 -33.93711 151.17561 16 ft 13 kts 349°
2026-04-30 10:15 -33.93625 151.17541 17 ft 11 kts 349°
2026-04-30 10:16 -33.93553 151.17521 16 ft 10 kts 347°
2026-04-30 10:16 -33.93493 151.17505 18 ft 8 kts 348°
2026-04-30 10:16 -33.93432 151.17501 19 ft 12 kts
2026-04-30 10:17 -33.93165 151.17454 21 ft 11 kts 345°
2026-04-30 10:17 -33.93092 151.17517 29 ft 11 kts 146°
2026-04-30 10:17 -33.93194 151.17545 29 ft 13 kts 170°
2026-04-30 10:18 -33.93248 151.17581 29 ft 5 kts 89°
2026-04-30 10:18 -33.93231 151.17643 29 ft 10 kts 70°
2026-04-30 10:18 -33.93222 151.17672 29 ft 0 kts 70°